User: anonymous   Login
Location: Unspecified
(0.0000°N, 0.0000°E)
Time: 11:08:07
(UTC+00:00)
Language:

RAINCUBE - Orbit

View from above orbital plane
View from above orbital plane
View from above satellite
View from above satellite

Ground track
Ground track

The orbit data is extracted from the following two-line orbital elements,

1 43548U 98067NW  19107.87397139 +.00012659 +00000-0 +15964-3 0  9990
2 43548 051.6367 293.9514 0005447 258.3138 101.7244 15.59982778043420
Epoch (UTC): 17 April 2019 20:58:31
Eccentricity: 0.0005447
inclination: 51.6367°
perigee height: 384 km
apogee height: 391 km
right ascension of ascending node: 293.9514°
argument of perigee: 258.3138°
revolutions per day: 15.59982778
mean anomaly at epoch: 101.7244°
orbit number at epoch: 4342

The dashed part of the orbit path shows where the satellite is in the earth's shadow,  

DLR